Regional Weather Roundup
Issued by NWS

Home | Current Version | Previous Version | Text Only | Print | Product List | Glossary Off
Versions: 1 2 3 4 5 6 7 8 9 10 11 12 13 14 15 16 17 18 19 20 21 22 23 24 25 26 27 28 29 30 31 32 33 34 35 36 37 38 39 40 41 42 43 44 45 46 47 48 49 50

000
ASUS45 KBOI 212110
RWRID
WEATHER ROUNDUP FOR IDAHO
NATIONAL WEATHER SERVICE BOISE ID
300 PM MDT THU AUG 21 2014

NOTE: "FAIR" INDICATES FEW OR NO CLOUDS BELOW 12000 FEET
WITH NO SIGNIFICANT WEATHER AND/OR OBSTRUCTIONS TO VISIBILITY

IDZ012-014-212200-
SOUTHWEST IDAHO


CITY           SKY/WX    TMP DP  RH WIND       PRES   REMARKS
BOISE          FAIR      82  41  23 NW7       29.95F
CALDWELL       FAIR      81  41  24 CALM      29.96F
MOUNTAIN HOME  FAIR      81  46  28 VRB5      29.94F
$$

IDZ016-017-212200-
SOUTHCENTRAL IDAHO


CITY           SKY/WX    TMP DP  RH WIND       PRES   REMARKS
BURLEY         FAIR      76  51  41 S5        30.03S
JEROME         FAIR      75  52  44 CALM      30.03S
TWIN FALLS     FAIR      77  55  46 CALM      30.02F
$$

IDZ019>023-212200-
SOUTHEAST IDAHO


CITY           SKY/WX    TMP DP  RH WIND       PRES   REMARKS
IDAHO FALLS    MOSUNNY   72  50  45 S5        30.08F
POCATELLO      MOSUNNY   76  51  41 S10       30.07F
REXBURG        SUNNY     70  51  51 VRB6      30.09F
$$

IDZ006-010-011-018-031-032-212200-
CENTRAL IDAHO MOUNTAINS


CITY           SKY/WX    TMP DP  RH WIND       PRES   REMARKS
MCCALL         FAIR      71  42  35 S14G22    30.04S
HAILEY         MOSUNNY   72  54  53 SE13G22   30.09S
STANLEY          N/A     70  35  27 VRB7      30.10S
SALMON         FAIR      72  50  46 N7        29.98F
CHALLIS        LGT RAIN  70  46  42 VRB5      30.02F
$$

IDZ002-004-006-007-026-212200-
NORTHERN IDAHO


CITY           SKY/WX    TMP DP  RH WIND       PRES   REMARKS
LEWISTON       FAIR      83  44  25 W5        29.91F
LOWELL           N/A     87  51  28 S5        29.85F
COEUR D`ALENE  FAIR      77  52  41 CALM      29.95F
MULLAN PASS    PTSUNNY   57  53  86 CALM      30.11F
$$



USA.gov is the U.S. government's official web portal to all federal, state and local government web resources and services.